W6MAF Weather Reports


Display with metric or nautical units.
time (UTC)temp
F
wind
direction
speed
MPH
gust
MPH
rain 1hr
in
rain 24hr
in
rain mn
in
humidity
%
barometer
mb
20260507123812 59 248 0.0 0.0 0.00 0.00 0.00 31
20260507123314 59 248 0.0 0.0 0.00 0.00 0.00 31
20260507122817 59 248 0.0 0.0 0.00 0.00 0.00 31
20260507122320 59 248 0.0 0.0 0.00 0.00 0.00
20260507121822 59 248 0.0 0.0 0.00 0.00 0.00 31
20260507121321 59 248 0.0 0.0 0.00 0.00 0.00 31
20260507120823 59 248 0.0 0.0 0.00 0.00 0.00 32
20260507120325 58 248 0.0 0.0 0.00 0.00 0.00 33
20260507115827 58 248 0.0 0.0 0.00 0.00 0.00 33
20260507115331 58 248 0.0 0.0 0.00 0.00 0.00 33
20260507114833 58 248 0.0 0.0 0.00 0.00 0.00 33
20260507114331 58 248 0.0 0.0 0.00 0.00 0.00 33
20260507113834 59 248 0.0 0.0 0.00 0.00 0.00 33
20260507113336 59 248 0.0 0.0 0.00 0.00 0.00 33
20260507112838 59 248 0.0 0.0 0.00 0.00 0.00 33
20260507112429 59 248 0.0 0.0 0.00 0.00 0.00 33
20260507112341 59 248 0.0 0.0 0.00 0.00 0.00 33
20260507111843 59 248 0.0 0.0 0.00 0.00 0.00 33
20260507111342 59 248 0.0 0.0 0.00 0.00 0.00 34
20260507110844 59 248 0.0 0.0 0.00 0.00 0.00 34
20260507110558 59 248 0.0 0.0 0.00 0.00 0.00 34
20260507110347 59 248 0.0 0.0 0.00 0.00 0.00 34
20260507105850 59 248 0.0 0.0 0.00 0.00 0.00 34
20260507105351 59 248 0.0 0.0 0.00 0.00 0.00 34
20260507104854 59 248 0.0 0.0 0.00 0.00 0.00 34
20260507104353 59 248 0.0 0.0 0.00 0.00 0.00 35
20260507103855 58 248 0.0 0.0 0.00 0.00 0.00 35
20260507103358 58 248 0.0 0.0 0.00 0.00 0.00 35
20260507102900 58 248 0.0 0.0 0.00 0.00 0.00 35
20260507102402 59 248 0.0 0.0 0.00 0.00 0.00 35
20260507101905 59 248 0.0 0.0 0.00 0.00 0.00 35
20260507101404 59 248 0.0 0.0 0.00 0.00 0.00 35
20260507100906 59 248 0.0 0.0 0.00 0.00 0.00 35
20260507100408 59 248 0.0 0.0 0.00 0.00 0.00 35
20260507095911 59 248 0.0 0.0 0.00 0.00 0.00 35
20260507095413 59 248 0.0 0.0 0.00 0.00 0.00 36
20260507094915 59 248 0.0 0.0 0.00 0.00 0.00 36
20260507094416 58 248 0.0 0.0 0.00 0.00 0.00 37
20260507093419 58 248 0.0 0.0 0.00 0.00 0.00 39
20260507092922 57 248 0.0 0.0 0.00 0.00 0.00 39
20260507092424 57 248 0.0 0.0 0.00 0.00 0.00 41
20260507091927 56 248 0.0 0.0 0.00 0.00 0.00 42
20260507091425 56 248 0.0 0.0 0.00 0.00 0.00 44
20260507090928 55 248 0.0 0.0 0.00 0.00 0.00 46
20260507090430 54 248 0.0 0.0 0.00 0.00 0.00 47
20260507085932 54 248 0.0 0.0 0.00 0.00 0.00 50
20260507085435 54 248 0.0 0.0 0.00 0.00 0.00 53
20260507084938 54 248 0.0 0.0 0.00 0.00 0.00 54
20260507084436 54 248 0.0 0.0 0.00 0.00 0.00 56
20260507083939 54 248 0.0 0.0 0.00 0.00 0.00 57
20260507083441 54 248 0.0 0.0 0.00 0.00 0.00 58
20260507082943 54 248 0.0 0.0 0.00 0.00 0.00 59
20260507082446 54 248 0.0 0.0 0.00 0.00 0.00 59
20260507081948 54 248 0.0 0.0 0.00 0.00 0.00 58
20260507081447 55 248 0.0 0.0 0.00 0.00 0.00 57
20260507080949 55 248 0.0 0.0 0.00 0.00 0.00 57
20260507080452 55 248 0.0 0.0 0.00 0.00 0.00 56
20260507075954 55 248 0.0 0.0 0.00 0.00 0.00 56
20260507075456 55 248 0.0 0.0 0.00 0.00 0.00 55
20260507074959 56 248 0.0 0.0 0.00 0.00 0.00 56
20260507074458 56 248 0.0 0.0 0.00 0.00 0.00 56
20260507074000 55 248 0.0 0.0 0.00 0.00 0.00 57
20260507073503 55 248 0.0 0.0 0.00 0.00 0.00 58
20260507073005 56 248 0.0 0.0 0.00 0.00 0.00 58
20260507072507 56 248 0.0 0.0 0.00 0.00 0.00 58
20260507072010 56 248 0.0 0.0 0.00 0.00 0.00 58
20260507071509 56 248 0.0 0.0 0.00 0.00 0.00 58
20260507071012 56 248 0.0 0.0 0.00 0.00 0.00 59
20260507070513 56 248 0.0 0.0 0.00 0.00 0.00 59
20260507070016 56 229 3.0 2.0 0.00 0.00 0.00 60
20260507065020 56 221 7.0 6.0 0.00 0.00 0.00 62
20260507064519 56 229 6.0 8.0 0.00 0.00 0.00 63
20260507064022 56 233 7.0 0.0 0.00 0.00 0.00 64
20260507063524 56 231 5.0 9.0 0.00 0.00 0.00 63
20260507063027 56 248 3.0 0.0 0.00 0.00 0.00 63
20260507062529 56 226 1.0 0.0 0.00 0.00 0.00 63
20260507062032 56 190 8.0 0.0 0.00 0.00 0.00 63
20260507061530 56 211 8.0 10.0 0.00 0.00 0.00 62
20260507061033 56 221 6.0 7.0 0.00 0.00 0.00 61
20260507060535 56 233 6.0 9.0 0.00 0.00 0.00 61
20260507060038 56 235 6.0 3.0 0.00 0.00 0.00 61
20260507055540 56 224 0.0 0.0 0.00 0.00 0.00 61
20260507055042 56 224 0.0 0.0 0.00 0.00 0.00 60
20260507054541 56 224 9.0 8.0 0.00 0.00 0.00 59
20260507054043 57 211 8.0 3.0 0.00 0.00 0.00 58
20260507053546 57 211 6.0 5.0 0.00 0.00 0.00 56
20260507053048 57 243 7.0 8.0 0.00 0.00 0.00 56
20260507052550 57 235 7.0 6.0 0.00 0.00 0.00 54
20260507052053 57 238 7.0 11.0 0.00 0.00 0.00 56
20260507051552 57 235 7.0 12.0 0.00 0.00 0.00 56
20260507051055 57 229 9.0 11.0 0.00 0.00 0.00 56
20260507050059 57 243 4.0 7.0 0.00 0.00 0.00 56
20260507045601 57 229 7.0 12.0 0.00 0.00 0.00 56
20260507044603 57 228 6.0 9.0 0.00 0.00 0.00 56
20260507044105 57 238 9.0 14.0 0.00 0.00 0.00 57
20260507043608 57 222 8.0 6.0 0.00 0.00 0.00 58
20260507041614 57 236 10.0 12.0 0.00 0.00 0.00 58
20260507041116 57 236 12.0 15.0 0.00 0.00 0.00 56
20260507040618 58 217 13.0 14.0 0.00 0.00 0.00 56
20260507040120 58 212 13.0 11.0 0.00 0.00 0.00 55
20260507035624 58 248 12.0 10.0 0.00 0.00 0.00 53
20260507035125 58 240 8.0 12.0 0.00 0.00 0.00 53
20260507034624 58 215 11.0 14.0 0.00 0.00 0.00 52
20260507034126 58 224 10.0 10.0 0.00 0.00 0.00 52
20260507033629 58 224 16.0 19.0 0.00 0.00 0.00 52
20260507033131 58 235 11.0 19.0 0.00 0.00 0.00 51
20260507032633 58 201 14.0 13.0 0.00 0.00 0.00 51
20260507032136 58 221 16.0 16.0 0.00 0.00 0.00 51
20260507031635 59 231 15.0 15.0 0.00 0.00 0.00 50
20260507031137 59 214 16.0 18.0 0.00 0.00 0.00 49
20260507030640 59 225 12.0 14.0 0.00 0.00 0.00 49
20260507030142 59 226 15.0 11.0 0.00 0.00 0.00 47
20260507025644 60 229 11.0 18.0 0.00 0.00 0.00 46
20260507024646 60 236 14.0 10.0 0.00 0.00 0.00 45
20260507024148 61 190 15.0 15.0 0.00 0.00 0.00 43
20260507023650 61 235 12.0 11.0 0.00 0.00 0.00 42
20260507023153 62 225 12.0 7.0 0.00 0.00 0.00 40
20260507022655 63 211 14.0 11.0 0.00 0.00 0.00 39
20260507022157 63 222 13.0 13.0 0.00 0.00 0.00 37
20260507021656 64 195 15.0 14.0 0.00 0.00 0.00 36
20260507021159 65 224 11.0 12.0 0.00 0.00 0.00 34
20260507020701 65 242 10.0 14.0 0.00 0.00 0.00 33
20260507020203 66 219 13.0 8.0 0.00 0.00 0.00 32
20260507015705 66 139 9.0 7.0 0.00 0.00 0.00 30
20260507014708 67 232 8.0 11.0 0.00 0.00 0.00 28
20260507014210 68 219 12.0 14.0 0.00 0.00 0.00 26
20260507013711 68 193 13.0 8.0 0.00 0.00 0.00 25
20260507013214 69 191 8.0 8.0 0.00 0.00 0.00 24
20260507012752 69 219 11.0 11.0 0.00 0.00 0.00 23
20260507012716 69 219 11.0 11.0 0.00 0.00 0.00 23
20260507012219 70 235 11.0 15.0 0.00 0.00 0.00 22
20260507011718 70 228 10.0 13.0 0.00 0.00 0.00 21
20260507011220 71 221 13.0 12.0 0.00 0.00 0.00 20
20260507010722 71 238 11.0 8.0 0.00 0.00 0.00 18
20260507010224 72 203 9.0 8.0 0.00 0.00 0.00 17
20260507005727 73 215 12.0 12.0 0.00 0.00 0.00 16
20260507005229 73 210 12.0 8.0 0.00 0.00 0.00 15
20260507004728 74 225 11.0 8.0 0.00 0.00 0.00 15
20260507004231 74 166 10.0 9.0 0.00 0.00 0.00 14
20260507003733 75 195 8.0 9.0 0.00 0.00 0.00 12
20260507003235 76 249 7.0 6.0 0.00 0.00 0.00 12
20260507002737 76 270 9.0 8.0 0.00 0.00 0.00 12
20260507002240 77 200 7.0 4.0 0.00 0.00 0.00 11
20260507001739 77 235 7.0 11.0 0.00 0.00 0.00 9
20260507001241 77 262 1.0 4.0 0.00 0.00 0.00 6
20260507000246 77 300 8.0 6.0 0.00 0.00 0.00 5
20260506235749 77 345 3.0 3.0 0.00 0.00 0.00 5
20260506235251 77 37 7.0 7.0 0.00 0.00 0.00 5
20260506234750 77 3 8.0 9.0 0.00 0.00 0.00 5
20260506234252 77 15 12.0 9.0 0.00 0.00 0.00 5
20260506233257 76 21 6.0 6.0 0.00 0.00 0.00 5
20260506232759 76 3 11.0 15.0 0.00 0.00 0.00 5
20260506232301 76 11 10.0 12.0 0.00 0.00 0.00 6
20260506231800 76 18 13.0 18.0 0.00 0.00 0.00 5
20260506231303 77 25 12.0 13.0 0.00 0.00 0.00 6
20260506230805 77 8 11.0 9.0 0.00 0.00 0.00 6
20260506230307 77 338 11.0 10.0 0.00 0.00 0.00 6
20260506224811 76 23 10.0 7.0 0.00 0.00 0.00 6
20260506224313 76 41 15.0 19.0 0.00 0.00 0.00 6
20260506223816 76 46 13.0 10.0 0.00 0.00 0.00 6
20260506223318 76 39 12.0 12.0 0.00 0.00 0.00 6
20260506222820 76 11 11.0 13.0 0.00 0.00 0.00 6
20260506222323 76 1 10.0 6.0 0.00 0.00 0.00 6
20260506221822 76 347 7.0 7.0 0.00 0.00 0.00 6
20260506221324 75 52 5.0 3.0 0.00 0.00 0.00 7
20260506220827 76 52 0.0 0.0 0.00 0.13 0.00 6
20260506220329 75 28 10.0 12.0 0.00 0.00 0.00 7
20260506215831 75 28 11.0 14.0 0.00 0.00 0.00 7
20260506215334 75 48 12.0 10.0 0.00 0.00 0.00 7
20260506214833 75 15 7.0 10.0 0.00 0.00 0.00 8
20260506214336 75 332 10.0 11.0 0.00 0.00 0.00 8
20260506213837 75 356 9.0 7.0 0.00 0.00 0.00 8
20260506213339 75 49 9.0 12.0 0.00 0.00 0.00 8
20260506212842 75 62 6.0 7.0 0.00 0.00 0.00 8
20260506211843 74 41 10.0 9.0 0.00 0.00 0.00 9
20260506211346 74 73 8.0 10.0 0.00 0.00 0.00 9
20260506210848 74 60 9.0 10.0 0.00 0.00 0.00 9
20260506205854 74 42 6.0 6.0 0.00 0.00 0.00 9
20260506205356 74 45 12.0 6.0 0.00 0.00 0.00 9
20260506204854 74 45 12.0 12.0 0.00 0.00 0.00 9
20260506204356 74 18 10.0 13.0 0.00 0.00 0.00 9
20260506203859 74 86 5.0 3.0 0.00 0.00 0.00 9
20260506203401 74 69 7.0 10.0 0.00 0.00 0.00 9
20260506202903 73 55 12.0 6.0 0.00 0.00 0.00 9
20260506202407 73 62 11.0 10.0 0.00 0.00 0.00 9
20260506201905 73 32 11.0 12.0 0.00 0.00 0.00 8
20260506201407 73 4 9.0 3.0 0.00 0.00 0.00 9
20260506200412 74 11 4.0 6.0 0.00 0.00 0.00 9
20260506195914 73 42 3.0 7.0 0.00 0.00 0.00 9
20260506195418 73 7 5.0 7.0 0.00 0.00 0.00 9
20260506194916 73 359 8.0 6.0 0.00 0.00 0.00 10
20260506194418 72 359 5.0 9.0 0.00 0.00 0.00 11
20260506193921 71 20 9.0 8.0 0.00 0.00 0.00 12
20260506193423 71 27 10.0 10.0 0.00 0.00 0.00 12
20260506192926 71 359 11.0 12.0 0.00 0.00 0.00 12
20260506192428 70 349 13.0 11.0 0.00 0.00 0.00 12
20260506191927 70 13 11.0 10.0 0.00 0.00 0.00 12
20260506191429 70 347 10.0 12.0 0.00 0.00 0.00 13
20260506190931 70 7 12.0 13.0 0.00 0.00 0.00 13
20260506190434 70 309 9.0 12.0 0.00 0.00 0.00 13
20260506185936 70 3 6.0 6.0 0.00 0.00 0.00 13
20260506185439 69 325 9.0 5.0 0.00 0.00 0.00 13
20260506184440 69 345 10.0 10.0 0.00 0.00 0.00 15
20260506183943 69 332 8.0 5.0 0.00 0.00 0.00 15
20260506183445 69 14 9.0 13.0 0.00 0.00 0.00 15
20260506182947 69 352 11.0 7.0 0.00 0.00 0.00 15
20260506182451 69 4 8.0 7.0 0.00 0.00 0.00 15
20260506181949 68 10 9.0 8.0 0.00 0.00 0.00 15
20260506181451 68 356 8.0 6.0 0.00 0.00 0.00 16
20260506180954 68 21 9.0 8.0 0.00 0.00 0.00 16
20260506180456 68 27 5.0 9.0 0.00 0.00 0.00 17
20260506175959 67 322 10.0 12.0 0.00 0.00 0.00 17
20260506175501 67 311 9.0 5.0 0.00 0.00 0.00 18
20260506175000 67 304 11.0 5.0 0.00 0.00 0.00 19
20260506174004 66 339 9.0 11.0 0.00 0.00 0.00 20
20260506173507 66 343 9.0 5.0 0.00 0.00 0.00 20
20260506173009 66 34 11.0 11.0 0.00 0.00 0.00 21
20260506172512 66 338 10.0 9.0 0.00 0.00 0.00 22
20260506172011 65 325 8.0 11.0 0.00 0.00 0.00 23
20260506171513 65 336 9.0 7.0 0.00 0.00 0.00 24
20260506171015 65 6 10.0 6.0 0.00 0.00 0.00 23
20260506170518 64 330 4.0 3.0 0.00 0.00 0.00 25
20260506170020 64 316 5.0 5.0 0.00 0.00 0.00 27
20260506165523 63 30 5.0 3.0 0.00 0.00 0.00 27
20260506165022 62 333 6.0 2.0 0.00 0.00 0.00 29
20260506164027 61 338 6.0 4.0 0.00 0.00 0.00 31
20260506163529 61 8 0.0 0.0 0.00 0.00 0.00 31
20260506163031 60 329 0.0 0.0 0.00 0.00 0.00 32
20260506162535 60 21 7.0 6.0 0.00 0.00 0.00 33
20260506162033 60 359 5.0 3.0 0.00 0.00 0.00 34
20260506161037 59 323 0.0 0.0 0.00 0.00 0.00 36
20260506160540 58 347 1.0 3.0 0.00 0.00 0.00 37
20260506160042 58 302 0.0 0.0 0.00 0.00 0.00 38
20260506155545 58 333 0.0 0.0 0.00 0.00 0.00 38
20260506155045 57 335 3.0 7.0 0.00 0.00 0.00 39
20260506154546 57 336 7.0 0.0 0.00 0.00 0.00 39
20260506154048 56 122 0.0 0.0 0.00 0.00 0.00 40
20260506153551 56 122 0.0 0.0 0.00 0.00 0.00 41
20260506153053 55 122 0.0 0.0 0.00 0.00 0.00 41
20260506152556 55 122 0.0 0.0 0.00 0.00 0.00 42
20260506152055 55 122 0.0 0.0 0.00 0.00 0.00 43
20260506151557 54 122 0.0 0.0 0.00 0.00 0.00 44
20260506151059 54 122 0.0 0.0 0.00 0.00 0.00 45
20260506150104 53 122 0.0 0.0 0.00 0.00 0.00 47
20260506145606 53 122 0.0 0.0 0.00 0.00 0.00 48
20260506145105 53 122 0.0 0.0 0.00 0.00 0.00 49
20260506144608 52 122 0.0 0.0 0.00 0.00 0.00 50
20260506144110 52 122 0.0 0.0 0.00 0.00 0.00 52
20260506143612 51 122 0.0 0.0 0.00 0.00 0.00 54
20260506143152 51 122 0.0 0.0 0.00 0.00 0.00 56
20260506143115 51 122 0.0 0.0 0.00 0.00 0.00 56
20260506142618 50 122 0.0 0.0 0.00 0.00 0.00 59
20260506142116 50 122 0.0 0.0 0.00 0.00 0.00 61
20260506141657 49 122 0.0 0.0 0.00 0.00 0.00 64
20260506141619 49 122 0.0 0.0 0.00 0.00 0.00 64
20260506141121 48 122 0.0 0.0 0.00 0.00 0.00 66
20260506140623 48 122 0.0 0.0 0.00 0.00 0.00 68
20260506140126 47 122 0.0 0.0 0.00 0.00 0.00 70
20260506135628 47 122 0.0 0.0 0.00 0.00 0.00 71
20260506135127 46 122 0.0 0.0 0.00 0.00 0.00 73
20260506134631 46 122 0.0 0.0 0.00 0.00 0.00
20260506133634 45 122 0.0 0.0 0.00 0.00 0.00 76
20260506133136 45 122 0.0 0.0 0.00 0.00 0.00 78
20260506132639 44 122 0.0 0.0 0.00 0.00 0.00 80
20260506131641 44 122 0.0 3.0 0.00 0.00 0.00 82
20260506131143 44 142 5.0 5.0 0.00 0.00 0.00 84
20260506130645 44 149 5.0 5.0 0.00 0.00 0.00 85
20260506130147 43 150 6.0 6.0 0.00 0.00 0.00 87
20260506125650 43 165 7.0 7.0 0.00 0.00 0.00 89
20260506125150 43 173 7.0 7.0 0.00 0.00 0.00 91
20260506124651 42 173 7.0 7.0 0.00 0.00 0.00 92
20260506124154 42 173 6.0 7.0 0.00 0.00 0.00 94